Temp
80 91 94 91 76 78 73 80 92 91 87 98 98 93 88 88 85 75 101 98 94 89 84 84 81 81 80 80 79 79 79 79 79 79 79 79 79 80 79 80 80 80 81 81 81 81 81 81 81
88 94 93 86 72 68 74 87 88 94 96 100 99 98 90 85 95 94 97 96 94 89 86 84 81 80 80 79 79 79 79 79 79 79 79 79 79 79 79 80 80 81 81 81 81 81 81 81 81
83 91 82 77 73 69 74 89 93 99 99 98 96 100 93 88 97 98 100 96 94 89 89 82 80 80 80 79 79 79 79 78 79 79 79 79 79 79 79 80 80 81 81 81 81 81 81 81 81
88 87 85 71 71 79 82 89 96 98 98 100 99 88 94 101 98 100 101 97 94 93 88 80 80 80 79 79 79 79 79 79 79 79 79 79 79 79 79 79 80 81 81 81 81 81 80 80 80
88 86 72 70 73 82 90 93 96 95 95 97 99 88 88 98 101 102 99 98 95 94 87 83 79 79 79 79 79 79 79 79 79 79 79 79 79 79 79 79 80 80 81 81 81 80 80 80 80
78 82 69 67 74 83 90 96 97 95 97 98 96 90 90 101 98 100 100 98 99 91 86 82 79 79 79 79 79 78 78 78 79 79 79 79 79 79 79 79 80 80 80 80 80 80 80 79 79
76 74 69 74 75 80 87 96 94 93 94 96 101 85 91 96 100 101 100 100 98 92 89 84 83 80 79 79 78 78 78 78 78 78 78 78 78 78 79 79 79 80 80 80 80 79 79 79 79
81 78 72 74 76 79 90 94 97 94 93 101 102 87 85 95 100 101 101 100 96 93 89 86 83 83 82 80 78 78 78 78 78 78 78 78 78 78 78 78 78 79 79 79 79 79 79 78 78
87 71 69 73 76 82 94 91 98 101 97 98 99 90 89 99 101 99 98 97 94 93 90 90 88 86 85 84 80 78 79 78 78 78 78 77 81 80 80 80 79 79 79 79 79 79 78 78 78
77 70 71 82 86 85 91 94 94 92 93 93 93 87 80 90 97 96 95 93 92 91 91 91 89 87 88 90 80 81 82 81 80 81 79 81 82 81 85 82 79 79 79 78 78 78 78 78 79
76 71 78 82 88 91 91 92 97 91 87 93 90 90 84 83 94 96 97 96 94 93 92 92 87 85 89 89 82 84 84 83 82 82 80 79 84 84 84 80 80 78 78 79 78 78 77 80 80
71 78 80 84 88 89 88 94 93 93 92 98 97 94 93 92 92 95 96 97 96 94 93 91 89 85 86 87 85 85 86 85 83 83 81 79 82 83 83 84 82 79 81 78 80 81 80 80 80
73 77 81 85 87 89 91 89 90 90 96 99 95 92 92 91 92 96 98 98 95 92 92 92 89 85 85 82 85 85 85 87 86 84 83 83 82 82 82 82 83 82 83 83 81 82 82 83 83
77 78 81 83 83 86 85 86 89 91 97 94 95 91 92 92 92 93 93 90 92 91 90 91 89 85 87 87 83 84 85 87 87 86 85 83 83 82 82 82 81 81 83 83 83 81 80 81 82
78 73 78 80 82 82 86 79 81 92 94 91 91 91 92 92 94 93 92 89 89 89 89 88 87 86 85 85 87 86 87 89 86 86 85 84 83 82 81 81 79 80 80 83 83 82 82 81 83
71 73 66 77 81 82 81 69 82 90 90 88 90 90 91 91 93 94 95 91 90 87 86 88 93 87 85 85 85 86 86 85 85 86 86 85 84 83 82 80 80 81 81 81 80 80 79 79 81
67 60 64 70 80 80 77 71 82 89 87 86 88 89 90 91 90 92 94 89 86 86 85 86 88 84 85 85 85 85 86 85 86 86 86 87 86 85 80 80 80 81 80 80 80 79 79 78 79
59 61 65 66 74 77 73 73 81 86 86 85 86 88 89 89 89 91 92 88 84 84 83 85 87 86 82 85 83 85 85 85 86 85 85 86 84 83 81 80 80 81 79 78 78 77 78 79 79
66 64 64 70 77 73 72 73 78 83 85 84 84 86 87 88 91 91 92 87 84 81 75 79 82 83 81 83 81 83 83 84 84 84 85 83 83 83 81 81 80 79 78 77 78 78 77 76 78
65 64 63 71 76 74 71 71 77 82 82 83 84 85 87 88 89 88 89 88 85 83 81 79 79 81 81 79 83 84 83 86 85 85 83 83 83 82 82 80 79 79 78 78 77 77 75 76 78
62 63 65 65 72 75 71 67 72 79 83 85 86 87 88 87 87 86 87 85 85 83 84 83 82 81 80 81 81 82 83 83 83 83 83 82 82 82 81 81 80 76 75 74 74 74 73 70 73
56 68 70 67 66 59 72 55 67 74 76 80 82 85 87 88 89 87 87 85 85 85 85 84 84 82 82 81 78 80 76 74 81 79 79 79 77 77 77 75 75 73 72 72 72 71 71 72 69
61 70 69 68 66 65 64 60 66 74 71 75 79 84 87 88 89 89 89 87 89 88 86 84 82 83 85 82 82 78 78 76 77 78 80 80 79 81 79 75 74 72 71 71 71 71 71 71 70
70 67 68 69 66 53 61 60 63 68 72 75 80 84 86 88 90 91 92 91 89 91 89 85 82 82 82 84 82 80 79 78 75 76 74 74 74 74 74 78 76 73 72 73 74 73 73 71 71
65 61 50 48 50 49 65 60 65 74 78 80 79 83 86 89 89 89 89 91 90 91 87 84 82 81 83 83 84 82 79 76 76 76 75 73 74 70 73 74 72 72 72 73 71 68 71 72 70
60 61 52 41 46 52 65 56 64 80 83 84 84 85 87 87 89 89 90 90 91 90 85 83 81 80 81 78 76 76 75 74 74 73 72 73 74 72 73 72 73 72 72 71 69 69 70 70 70
60 57 68 58 60 55 60 66 74 81 80 82 82 82 82 84 85 87 90 89 89 87 80 79 75 76 75 74 72 72 73 73 72 71 71 69 70 74 71 72 70 71 70 69 67 67 67 66 66
64 70 56 60 45 44 56 59 62 70 74 79 80 80 82 84 87 88 87 80 79 79 76 76 75 74 74 74 73 72 71 72 71 70 69 68 68 69 69 69 68 68 68 67 65 64 64 63 65
61 60 64 63 60 48 46 57 71 71 75 75 79 82 83 85 84 80 80 80 80 78 76 74 74 74 73 73 72 71 71 70 69 67 67 66 66 66 66 66 66 64 65 63 62 62 62 61 60
67 64 64 54 50 57 58 55 77 76 77 78 74 77 79 79 79 78 79 77 76 75 76 75 74 74 73 72 71 69 69 68 67 66 65 66 64 65 65 66 66 66 66 64 59 59 60 59 58
MSLP
1009.14 1008.35 1007.50 1006.19 1005.16 1002.54 1000.17 998.16 996.46 995.00 995.69 995.25 995.45 996.52 997.85 997.98 998.12 1000.05 1000.88 1002.11 1003.68 1005.23 1006.60 1007.25 1007.73 1008.35 1008.93 1009.46 1009.98 1010.52 1010.83 1011.25 1011.77 1012.13 1012.40 1012.80 1013.04 1013.35 1013.52 1013.64 1013.84 1014.02 1014.21 1014.37 1014.65 1014.89 1015.12 1015.30 1015.43
1008.71 1007.62 1006.76 1005.28 1003.66 1001.20 998.79 997.16 995.35 994.29 994.44 995.57 995.75 996.21 997.49 998.22 998.75 1000.34 1000.99 1002.60 1004.23 1005.64 1006.61 1007.47 1008.11 1008.65 1009.23 1009.69 1010.15 1010.61 1011.08 1011.47 1011.91 1012.38 1012.58 1012.94 1013.29 1013.58 1013.75 1013.97 1014.13 1014.29 1014.45 1014.69 1014.84 1015.09 1015.35 1015.50 1015.61
1008.98 1007.72 1006.36 1004.37 1002.65 1000.36 998.06 995.75 994.56 993.69 994.09 994.94 995.44 996.42 997.73 999.01 999.56 1000.14 1001.55 1003.09 1004.78 1005.91 1006.63 1007.78 1008.31 1008.96 1009.52 1010.03 1010.43 1010.85 1011.29 1011.69 1012.14 1012.47 1012.86 1013.11 1013.50 1013.73 1013.87 1014.11 1014.33 1014.44 1014.59 1014.75 1014.96 1015.22 1015.49 1015.68 1015.73
1007.41 1006.90 1005.71 1003.33 1000.97 999.66 997.82 995.45 994.13 993.28 993.98 994.71 995.45 997.42 998.82 999.25 999.64 1000.76 1002.00 1003.72 1005.00 1005.87 1006.94 1008.15 1008.53 1009.06 1009.70 1010.24 1010.72 1011.08 1011.47 1011.89 1012.32 1012.75 1013.06 1013.29 1013.55 1013.81 1013.99 1014.25 1014.35 1014.48 1014.66 1014.93 1015.23 1015.41 1015.59 1015.72 1015.76
1006.81 1005.22 1004.04 1002.31 1000.62 999.02 996.88 995.96 994.88 993.49 994.06 994.87 995.62 997.46 998.82 999.65 1000.22 1001.13 1002.33 1003.77 1004.74 1005.75 1007.28 1008.22 1008.84 1009.39 1009.85 1010.41 1010.96 1011.34 1011.71 1012.07 1012.45 1012.85 1013.29 1013.51 1013.73 1014.01 1014.21 1014.47 1014.65 1014.72 1014.85 1015.03 1015.24 1015.42 1015.52 1015.67 1015.75
1005.67 1004.67 1002.64 1001.14 999.73 998.51 996.72 995.38 994.67 994.54 994.71 994.93 995.73 997.34 999.09 999.89 1000.83 1001.37 1002.28 1003.44 1004.48 1005.97 1007.46 1008.60 1009.19 1009.64 1010.13 1010.69 1011.12 1011.55 1011.90 1012.24 1012.62 1013.05 1013.39 1013.72 1014.00 1014.11 1014.31 1014.50 1014.64 1014.81 1014.96 1015.03 1015.15 1015.34 1015.46 1015.59 1015.64
1004.42 1003.29 1001.71 1000.31 999.14 997.77 996.28 995.35 994.65 995.16 995.07 995.06 995.90 997.54 999.35 999.83 1000.92 1001.44 1002.16 1003.09 1004.35 1006.21 1007.43 1008.53 1009.23 1009.96 1010.38 1010.92 1011.38 1011.74 1012.18 1012.49 1012.84 1013.23 1013.58 1013.80 1014.05 1014.15 1014.25 1014.48 1014.66 1014.73 1014.92 1014.98 1015.18 1015.30 1015.34 1015.47 1015.51
1004.07 1002.84 1001.28 999.94 998.30 996.51 996.08 995.29 995.14 995.61 995.45 995.91 996.38 997.60 999.08 999.83 1000.95 1001.66 1002.14 1002.88 1004.46 1006.16 1007.48 1008.42 1009.11 1009.68 1010.42 1011.02 1011.54 1011.88 1012.12 1012.53 1012.85 1013.29 1013.56 1013.76 1013.95 1014.15 1014.28 1014.47 1014.62 1014.74 1014.94 1015.00 1015.06 1015.26 1015.33 1015.30 1015.31
1003.64 1002.21 999.77 998.52 997.93 996.41 995.31 994.98 994.99 995.94 995.77 996.33 997.40 999.11 1000.32 1000.35 1001.51 1002.10 1002.29 1003.08 1004.41 1005.88 1007.24 1008.13 1008.84 1009.35 1009.83 1010.70 1011.50 1012.03 1012.43 1012.85 1013.20 1013.50 1013.77 1013.98 1013.87 1014.03 1014.16 1014.23 1014.36 1014.59 1014.82 1014.89 1014.92 1015.02 1015.03 1015.01 1014.91
1002.39 1000.90 998.71 998.88 997.53 996.48 995.30 994.49 994.48 995.88 996.08 996.61 998.21 1000.82 1001.75 1000.70 1001.79 1002.30 1002.65 1003.06 1004.20 1005.42 1006.77 1007.72 1008.60 1009.28 1009.49 1010.06 1011.37 1011.82 1012.28 1012.76 1013.18 1013.41 1013.73 1013.71 1013.43 1013.52 1013.45 1013.75 1014.20 1014.38 1014.64 1014.76 1014.68 1014.76 1014.71 1014.71 1014.39
1001.72 999.40 1000.05 998.64 997.51 996.53 995.53 994.56 994.25 995.35 996.22 996.63 998.19 1000.53 1002.58 1004.10 1002.32 1001.97 1002.45 1003.05 1004.01 1005.06 1006.18 1007.24 1008.20 1008.96 1009.33 1009.81 1011.13 1011.49 1011.91 1012.32 1012.75 1013.01 1013.25 1013.34 1012.95 1012.89 1013.07 1013.52 1013.95 1014.15 1014.33 1014.44 1014.40 1014.44 1014.49 1014.07 1013.79
1001.17 1000.33 999.62 998.81 997.78 996.80 995.79 994.97 994.56 995.00 996.07 996.92 997.91 999.76 1001.43 1002.07 1002.08 1001.81 1001.98 1002.70 1003.60 1004.75 1005.82 1006.86 1007.91 1008.68 1009.09 1009.66 1010.71 1010.91 1011.30 1011.76 1012.13 1012.47 1012.84 1012.95 1012.79 1012.38 1012.42 1012.74 1013.02 1013.33 1013.36 1013.73 1013.58 1013.58 1013.36 1013.30 1013.31
1000.38 999.83 999.61 998.83 997.90 997.00 996.25 995.47 995.43 995.64 996.75 997.25 998.13 999.88 1001.12 1001.67 1001.77 1001.77 1002.25 1002.33 1003.44 1004.58 1005.65 1006.61 1007.75 1008.61 1009.07 1009.68 1010.21 1010.37 1010.61 1010.94 1011.23 1011.60 1012.09 1012.35 1012.35 1012.24 1012.14 1012.37 1012.29 1012.66 1012.34 1012.70 1012.68 1012.64 1012.64 1012.59 1012.44
1000.34 999.77 998.90 998.83 998.24 997.39 996.64 996.42 996.35 996.16 996.79 997.35 997.99 999.50 1000.02 1001.19 1001.63 1001.71 1001.94 1002.53 1003.38 1004.49 1005.59 1006.51 1007.63 1008.56 1009.15 1009.37 1009.79 1009.97 1009.92 1010.22 1010.49 1010.91 1011.36 1011.83 1011.90 1011.95 1011.90 1011.78 1011.67 1011.44 1011.39 1011.55 1011.78 1012.11 1012.20 1012.22 1012.20
1000.03 999.41 998.91 998.19 998.14 997.67 997.46 997.38 996.71 996.64 997.02 997.68 998.82 999.37 999.93 1000.50 1001.05 1001.59 1001.85 1002.50 1003.46 1004.50 1005.52 1006.52 1007.56 1008.41 1009.09 1009.40 1009.61 1009.66 1009.64 1009.85 1010.24 1010.39 1010.67 1011.20 1011.53 1011.62 1011.67 1011.84 1012.03 1011.67 1011.42 1011.43 1011.30 1011.57 1011.70 1011.86 1011.82
999.91 999.09 998.09 997.94 997.76 997.92 998.24 997.61 997.57 997.43 997.64 998.01 998.81 999.52 1000.03 1000.38 1000.65 1001.39 1002.09 1002.61 1003.66 1004.61 1005.61 1006.39 1007.21 1008.36 1009.09 1009.49 1009.68 1009.75 1009.71 1009.80 1010.07 1010.08 1010.31 1010.61 1010.94 1011.37 1011.53 1011.99 1012.03 1011.68 1011.34 1011.11 1011.29 1011.50 1011.74 1011.76 1011.59
999.20 997.88 997.32 997.55 997.79 997.78 998.00 998.04 997.94 997.91 998.18 998.40 998.79 999.54 999.82 1000.33 1000.46 1001.26 1002.09 1003.39 1004.23 1005.10 1005.76 1006.56 1007.19 1008.13 1008.85 1009.51 1009.80 1009.96 1010.00 1009.96 1009.82 1009.89 1010.12 1010.40 1010.75 1011.12 1011.65 1012.03 1011.84 1011.36 1011.36 1011.13 1011.35 1011.26 1011.45 1011.47 1011.05
997.68 997.29 997.19 996.88 997.23 997.56 997.93 998.21 997.90 997.87 998.17 998.59 999.13 999.60 999.68 1000.32 1001.10 1001.95 1002.59 1003.61 1004.78 1005.64 1006.33 1006.99 1007.57 1008.02 1008.64 1009.18 1009.71 1009.79 1009.96 1009.90 1009.80 1010.04 1010.28 1010.56 1010.97 1011.26 1011.70 1012.05 1012.16 1011.69 1011.55 1011.39 1011.55 1011.48 1011.16 1011.21 1010.93
998.09 997.73 996.84 997.14 996.89 997.53 997.74 998.06 997.78 997.58 998.07 998.54 999.19 999.29 999.59 1000.25 1001.17 1002.32 1002.95 1004.16 1005.09 1005.95 1006.91 1007.40 1007.87 1008.17 1008.80 1009.03 1009.50 1009.72 1009.67 1009.71 1009.94 1010.18 1010.27 1010.71 1010.95 1011.23 1011.52 1011.91 1011.93 1012.08 1011.89 1011.59 1011.70 1011.35 1011.15 1011.18 1010.98
998.37 997.33 997.26 996.90 996.82 997.26 997.92 997.82 998.21 997.48 997.78 998.63 998.90 999.11 999.47 1000.12 1001.07 1002.34 1003.24 1004.16 1005.10 1005.92 1006.85 1007.44 1007.85 1008.21 1008.54 1008.94 1008.90 1008.99 1009.18 1009.20 1009.52 1009.83 1010.09 1010.51 1010.79 1011.16 1011.25 1011.48 1011.81 1011.99 1011.75 1011.64 1011.59 1011.32 1011.14 1010.87 1010.69
998.29 996.86 996.50 996.37 996.49 996.90 997.77 998.07 998.01 997.58 997.69 998.28 998.75 998.95 999.47 1000.01 1000.71 1001.89 1003.09 1004.14 1005.00 1005.74 1006.34 1006.99 1007.55 1008.11 1008.48 1008.58 1008.85 1008.96 1009.10 1009.13 1009.38 1009.51 1009.60 1009.84 1010.13 1010.39 1010.51 1011.09 1011.45 1011.90 1012.17 1011.98 1011.92 1011.23 1010.56 1010.70 1010.38
998.07 996.95 996.15 996.23 996.14 995.90 997.16 997.30 997.64 997.56 997.60 998.15 998.50 998.68 999.24 999.92 1000.51 1001.47 1002.56 1003.79 1004.69 1005.39 1006.09 1006.59 1007.04 1007.59 1008.27 1008.70 1009.15 1009.23 1009.34 1009.69 1009.37 1009.46 1009.54 1009.58 1010.00 1010.01 1010.67 1010.76 1011.29 1011.61 1011.69 1012.02 1012.39 1010.99 1009.91 1011.31 1011.30
997.75 996.88 996.19 996.24 996.29 996.52 997.28 997.25 996.84 997.46 997.31 997.82 998.37 998.54 998.93 999.65 1000.25 1000.96 1001.89 1003.03 1003.92 1004.75 1005.53 1006.25 1006.90 1007.39 1007.81 1008.38 1008.90 1009.36 1009.63 1009.67 1009.69 1009.31 1009.54 1009.61 1010.06 1010.52 1010.78 1011.22 1011.50 1011.61 1011.96 1012.14 1011.83 1011.27 1011.36 1011.37 1010.94
997.91 996.87 996.21 996.13 996.27 996.71 996.87 996.91 995.43 995.40 996.13 997.35 998.05 998.44 998.77 999.39 1000.04 1000.73 1001.39 1002.33 1003.09 1003.95 1004.77 1005.57 1006.56 1007.38 1007.95 1008.41 1008.76 1009.31 1009.67 1009.78 1010.01 1010.13 1010.39 1010.77 1010.55 1011.35 1011.65 1011.39 1011.63 1011.91 1012.02 1011.94 1011.98 1011.61 1011.35 1011.12 1010.92
997.66 996.72 996.29 995.97 995.81 996.34 996.47 996.82 994.28 994.12 995.34 996.16 997.35 998.00 998.58 999.15 999.82 1000.75 1001.50 1002.22 1002.72 1003.47 1004.49 1005.91 1006.77 1007.53 1008.04 1008.35 1008.66 1009.08 1009.78 1010.14 1010.36 1010.59 1010.76 1010.87 1011.30 1012.10 1012.03 1012.32 1012.47 1012.48 1012.72 1012.66 1012.57 1012.26 1011.83 1011.58 1011.30
997.31 996.90 995.63 995.41 995.55 995.84 995.76 995.15 994.31 992.99 994.49 995.75 996.92 997.67 998.37 999.09 999.99 1000.73 1001.32 1002.04 1002.86 1003.79 1004.70 1005.84 1007.04 1008.00 1008.53 1009.11 1009.72 1009.99 1010.47 1010.92 1011.08 1011.31 1011.30 1011.66 1011.85 1012.27 1012.55 1012.85 1012.88 1012.83 1012.94 1012.98 1012.72 1012.19 1012.01 1011.61 1011.46
997.37 996.43 995.87 995.71 996.08 995.86 995.33 994.99 994.41 993.42 994.21 995.37 996.58 997.76 998.73 999.74 1000.46 1001.05 1001.63 1002.35 1003.10 1004.15 1005.54 1006.66 1008.00 1009.18 1009.71 1010.21 1010.73 1011.23 1011.49 1011.65 1011.87 1012.03 1012.14 1012.46 1012.67 1012.40 1012.90 1013.00 1013.21 1013.12 1013.11 1013.11 1013.05 1012.59 1012.30 1012.35 1012.07
997.13 996.09 995.41 995.36 995.44 995.16 994.61 994.52 994.07 994.32 994.68 995.53 996.50 997.64 998.75 999.81 1000.51 1001.08 1001.94 1003.31 1004.68 1006.08 1007.36 1008.32 1009.30 1010.07 1010.42 1010.87 1011.47 1012.03 1012.48 1012.62 1012.88 1013.04 1013.27 1013.50 1013.49 1013.40 1013.40 1013.44 1013.45 1013.36 1013.35 1013.32 1013.15 1013.09 1013.00 1012.82 1012.61
996.29 995.66 995.27 995.55 995.40 995.13 994.79 994.76 994.63 995.37 995.85 996.33 997.12 998.08 999.05 999.99 1001.09 1002.36 1003.53 1004.79 1005.80 1007.15 1008.42 1009.34 1010.05 1010.68 1011.17 1011.66 1012.30 1012.88 1013.35 1013.76 1013.96 1014.11 1014.28 1014.36 1014.36 1014.33 1014.23 1014.15 1014.10 1014.12 1013.99 1013.93 1013.80 1013.59 1013.32 1013.31 1013.23
996.11 995.24 995.25 995.39 995.84 995.54 995.60 995.10 995.19 996.21 997.07 997.80 999.04 999.81 1000.63 1001.60 1002.68 1004.01 1004.79 1006.11 1007.30 1008.33 1009.21 1010.04 1010.82 1011.47 1012.12 1012.73 1013.31 1013.86 1014.24 1014.56 1014.73 1014.88 1014.95 1014.99 1015.14 1015.12 1014.97 1014.84 1014.63 1014.46 1014.44 1014.40 1014.63 1014.61 1014.63 1014.25 1013.81
Wind_Speed
12 14 11 11 9 9 17 21 24 23 8 10 7 12 20 11 9 9 14 25 26 21 16 16 18 18 18 18 17 16 16 16 15 14 13 12 12 12 11 11 10 11 11 10 10 10 8 7 7
11 15 12 10 12 14 15 21 24 18 18 9 6 8 22 20 18 16 13 25 24 20 14 15 16 18 18 18 17 17 16 16 15 14 14 13 11 11 10 9 9 10 10 10 9 8 6 5 5
12 14 10 8 15 17 18 22 20 14 14 6 3 13 11 12 13 15 22 25 22 17 16 15 17 18 17 17 17 16 16 15 15 15 14 13 11 10 10 9 8 9 9 9 8 6 5 4 4
8 7 8 15 21 24 29 23 20 12 13 6 7 14 10 9 15 20 24 24 21 19 18 16 17 19 18 18 17 16 16 16 16 14 14 13 12 10 10 8 7 8 9 8 6 5 4 2 3
11 8 12 17 25 26 24 26 27 4 11 8 6 16 12 10 21 21 22 21 19 19 17 16 17 18 18 18 16 16 16 15 15 15 13 12 11 10 9 7 6 6 7 6 6 4 2 1 2
10 13 13 20 23 25 27 25 20 6 10 16 10 19 15 16 19 20 21 19 20 20 16 15 16 17 17 16 16 15 15 15 15 14 13 12 10 9 9 8 7 6 5 6 6 5 3 2 3
18 15 20 23 23 24 27 26 4 9 16 4 10 16 12 18 19 19 19 19 20 20 16 13 14 14 15 14 14 14 13 13 13 13 12 11 10 9 9 8 7 7 6 6 5 5 4 4 5
16 16 26 24 22 24 24 25 13 11 15 11 8 11 15 20 19 19 20 20 21 18 17 14 13 14 12 11 13 13 14 14 14 13 13 12 11 9 8 8 8 7 7 7 6 5 5 6 7
22 18 21 29 28 23 19 24 15 15 16 10 6 14 10 20 19 18 18 19 18 16 15 15 15 13 12 11 11 11 11 10 10 10 10 9 7 8 10 10 12 10 8 8 7 7 8 8 10
23 19 30 22 23 23 25 21 23 18 17 14 12 21 20 16 15 18 18 18 18 19 17 15 13 12 12 11 11 9 10 7 7 8 8 6 7 8 10 10 12 10 9 9 9 10 10 9 7
26 27 22 25 25 23 24 23 19 19 18 11 16 17 31 25 10 17 18 19 19 19 14 17 12 12 12 10 7 5 6 6 6 8 9 8 7 6 4 6 6 5 9 6 9 7 6 9 7
29 29 27 24 24 23 22 23 17 17 15 13 10 22 17 17 16 14 17 18 19 18 16 17 14 11 7 10 8 8 7 7 7 8 9 6 5 4 5 6 8 7 6 8 6 6 9 10 9
30 26 27 27 22 24 19 18 18 16 14 12 20 17 14 11 14 14 12 14 15 15 14 16 15 9 5 11 8 6 7 8 9 9 10 7 5 4 4 3 4 7 6 7 5 6 5 6 6
26 25 24 25 25 23 17 15 14 14 15 12 13 17 19 16 12 10 12 11 13 14 12 14 15 10 6 3 8 5 5 8 7 8 9 10 5 4 5 5 5 5 4 5 6 5 6 5 6
25 26 25 23 26 25 11 18 17 15 16 13 12 10 7 13 15 11 7 11 12 13 13 11 14 11 5 4 1 2 2 4 4 4 8 10 7 5 5 2 3 3 5 6 2 3 2 3 4
26 28 23 27 21 25 15 23 21 17 14 15 17 12 14 14 16 15 10 7 12 12 12 11 11 14 9 5 3 2 3 3 3 4 4 11 8 7 2 4 5 6 5 4 4 3 4 6 7
24 22 29 27 25 21 20 21 23 21 18 16 13 15 16 11 6 10 13 10 10 9 10 8 5 12 13 6 4 4 4 3 3 2 3 2 4 4 3 4 6 6 4 3 3 4 5 5 4
29 29 29 25 29 23 24 21 20 22 21 17 14 17 16 14 11 11 6 13 10 10 7 7 3 4 9 8 5 3 4 3 2 1 2 3 4 5 6 6 7 6 3 3 4 5 4 5 4
23 25 26 24 23 24 23 23 16 16 20 19 17 17 15 15 13 11 9 15 11 9 7 5 8 5 4 4 6 6 6 5 3 3 3 5 5 5 5 5 5 6 4 4 6 5 5 4 4
27 26 23 21 23 24 23 22 20 19 19 19 18 16 15 14 17 15 11 8 13 13 14 12 9 6 5 5 5 4 4 5 6 5 5 6 5 6 5 5 6 6 4 6 8 6 4 6 7
27 24 23 27 24 24 21 22 24 22 21 20 19 16 15 15 15 18 14 11 8 9 8 12 12 10 6 5 2 2 1 2 2 5 7 10 11 9 9 6 5 6 6 6 8 10 11 10 9
24 26 23 26 22 17 22 14 18 22 17 17 18 17 17 16 14 17 16 13 11 10 10 7 7 10 10 8 5 3 3 5 4 3 2 3 5 3 2 5 6 6 4 7 8 7 11 11 9
23 25 21 25 20 16 21 15 20 21 22 19 20 17 17 15 15 16 18 17 15 13 12 11 9 7 3 6 4 5 7 5 6 1 2 2 6 5 1 6 8 5 4 4 7 8 9 7 4
27 25 17 20 15 13 18 19 16 25 23 21 19 19 17 17 16 12 8 14 16 14 14 13 12 7 6 2 6 4 3 5 5 4 3 3 6 6 8 6 6 8 6 6 5 5 7 6 6
26 18 13 13 11 14 20 22 17 29 27 23 21 20 19 16 15 13 13 12 8 7 13 13 11 8 5 5 2 4 3 6 6 5 3 5 6 5 5 6 5 5 5 5 5 6 6 6 6
23 19 12 21 17 17 20 14 20 19 25 22 20 18 16 12 10 10 9 6 7 6 13 16 12 9 8 13 12 10 10 6 7 8 7 6 6 5 6 5 5 6 6 6 7 5 6 7 6
26 20 21 17 16 13 16 17 14 12 22 22 22 17 15 13 12 12 11 9 8 8 17 15 17 13 13 13 11 10 9 9 10 10 9 6 8 7 6 7 6 5 5 6 7 7 8 8 7
23 24 22 13 17 10 13 17 11 15 15 18 20 19 17 15 14 12 8 18 19 18 19 17 15 13 12 12 10 9 8 10 10 9 9 9 8 8 7 7 7 8 7 8 8 7 8 9 7
18 19 14 9 11 4 7 12 16 15 11 13 14 14 15 14 16 17 18 17 17 19 18 16 15 15 13 13 12 11 10 11 9 9 10 9 9 10 10 10 9 10 9 9 8 8 9 12 12
24 19 19 6 8 11 10 6 17 17 15 12 20 16 16 18 19 16 16 19 17 16 16 14 14 13 13 12 10 10 9 8 8 8 8 8 8 7 7 7 7 6 8 7 12 12 12 12 12
Wind_Direction
283 266 262 265 257 233 252 252 253 273 97 100 40 62 98 77 45 88 129 108 120 126 127 129 133 136 136 133 134 133 135 129 128 127 127 122 114 112 111 111 111 112 110 109 104 99 96 88 81
281 259 253 270 247 252 248 242 252 255 92 62 87 94 75 68 83 114 125 116 123 124 138 134 135 133 135 136 134 136 136 132 131 132 132 124 119 120 116 113 114 113 111 109 110 108 99 91 79
256 255 260 240 237 243 256 246 240 233 117 129 138 101 63 102 107 121 111 116 124 133 128 129 134 130 135 133 134 138 135 134 136 137 134 127 125 127 123 121 124 121 118 120 120 110 96 77 63
231 227 244 254 239 226 250 265 271 214 121 154 91 89 94 92 116 119 121 125 135 142 126 135 135 142 137 136 139 139 138 139 139 139 135 133 136 135 128 134 139 131 127 122 114 105 93 62 21
232 229 225 231 238 250 242 249 270 242 131 159 127 112 107 100 111 131 127 136 143 131 129 138 133 136 140 141 142 141 142 142 143 141 139 138 137 131 129 134 137 132 132 131 128 134 137 61 334
214 228 225 230 233 234 251 254 245 303 195 187 154 120 109 119 138 139 134 144 144 123 137 139 135 138 140 143 145 146 146 145 144 143 142 140 139 138 140 147 148 144 151 163 167 160 170 228 271
235 213 230 241 224 239 234 251 222 201 265 147 172 111 127 139 145 141 142 143 127 126 132 140 140 138 135 142 145 145 145 146 144 143 143 144 150 154 152 154 161 166 177 176 179 190 205 236 258
227 240 231 236 248 228 237 238 189 231 231 74 11 88 157 134 149 142 146 137 127 140 140 146 145 149 151 154 150 153 153 153 150 150 154 156 160 163 162 167 182 179 184 192 193 207 220 240 256
225 235 233 228 226 246 233 234 206 222 225 137 138 62 30 133 146 154 149 142 135 145 149 154 157 156 159 157 161 151 150 147 148 152 155 156 184 178 172 199 177 185 196 202 203 213 224 237 248
226 229 234 235 240 236 252 248 186 190 235 147 118 94 49 338 158 163 159 150 148 146 159 152 161 162 164 159 146 163 162 168 178 179 174 204 218 179 191 163 168 183 200 215 214 220 225 236 248
226 234 230 245 246 252 250 252 172 178 210 217 158 131 150 190 218 177 169 160 157 151 162 155 161 163 168 144 152 166 161 172 187 189 174 225 226 189 203 150 179 185 204 216 211 217 232 230 237
227 230 239 232 251 253 260 251 243 200 204 196 211 155 162 172 179 203 177 163 157 150 160 150 151 166 172 134 163 173 168 176 181 189 179 211 245 205 188 177 196 191 183 215 188 211 216 219 234
230 231 228 246 250 251 249 251 264 176 228 215 117 136 161 173 174 193 188 159 153 150 158 156 146 166 187 141 168 194 181 179 188 179 179 206 236 236 182 253 239 187 181 201 213 215 234 213 219
225 229 233 225 245 258 236 240 261 182 203 136 160 158 162 168 177 205 173 160 151 148 151 150 150 157 205 187 172 209 183 182 177 175 179 198 219 247 195 212 223 225 207 225 193 201 222 209 237
232 225 228 230 219 239 219 232 238 212 191 166 194 177 187 175 171 195 156 147 152 147 149 148 142 148 181 226 281 177 190 215 178 201 179 183 214 248 218 244 284 265 236 233 281 274 303 273 291
228 233 216 216 221 223 189 220 224 230 215 221 183 189 198 193 183 167 179 130 137 140 146 148 167 158 172 188 202 215 243 198 252 194 180 182 191 220 189 264 258 239 238 195 199 234 235 237 224
215 213 220 207 217 210 198 220 214 215 215 214 192 200 201 176 139 155 162 106 99 117 129 149 150 156 165 189 199 207 246 249 229 176 58 117 193 199 221 255 261 263 229 224 228 220 226 240 247
200 213 209 217 195 212 203 220 232 206 205 212 198 213 193 176 163 158 183 130 113 108 103 139 179 204 161 172 202 220 220 223 235 52 181 212 213 215 223 240 282 312 242 266 269 246 249 245 250
210 208 212 205 200 200 213 206 221 221 201 204 200 210 195 174 166 152 156 137 139 132 140 177 190 218 166 187 180 211 215 189 193 243 235 232 240 239 245 247 244 264 261 251 260 238 227 275 286
226 205 213 214 223 188 201 211 218 235 181 208 198 207 203 176 163 155 151 143 152 157 164 174 181 180 199 204 216 195 217 204 191 190 209 219 231 218 254 234 263 272 240 254 261 259 246 239 224
226 222 193 217 200 179 191 217 198 235 182 207 195 204 199 192 178 157 155 147 144 150 166 172 171 179 195 237 252 238 328 341 258 203 213 208 213 210 209 238 244 275 316 307 282 272 249 267 278
218 228 202 210 187 186 186 197 214 219 182 201 207 211 188 198 191 156 153 155 157 160 161 164 164 165 178 200 221 256 269 261 268 260 98 92 60 40 41 262 314 340 327 289 315 308 313 273 295
218 220 221 202 210 171 188 229 189 212 188 198 210 210 198 191 192 163 165 162 167 171 160 155 156 151 173 166 229 189 221 246 267 217 81 8 71 46 164 254 265 258 229 278 309 295 279 273 273
215 216 219 197 189 195 188 218 220 192 200 185 196 207 204 190 196 186 196 166 167 169 165 156 138 140 143 222 173 199 313 303 324 7 24 20 58 61 22 36 21 47 356 11 343 343 342 323 306
225 207 192 192 175 195 205 197 246 182 191 192 191 198 199 198 185 183 196 211 159 160 111 117 113 120 117 134 72 92 32 50 41 34 17 73 82 76 44 30 21 13 12 358 1 326 324 2 355
221 204 192 170 184 191 206 190 225 241 177 187 183 194 187 179 188 198 184 172 174 184 130 117 130 123 88 60 55 56 68 66 68 49 55 28 63 57 50 40 19 26 12 7 8 337 351 357 356
193 207 194 184 188 181 202 195 218 130 163 177 168 176 182 187 203 193 197 185 182 98 83 84 86 79 81 79 65 53 56 64 56 35 50 47 30 40 31 23 23 356 14 1 9 359 354 358 336
208 210 199 200 185 199 176 183 155 150 159 170 173 174 170 175 188 183 126 77 81 86 86 91 94 95 87 81 80 72 60 57 57 52 53 43 25 17 14 13 6 1 357 10 15 358 345 328 343
196 215 222 209 233 170 142 183 138 139 145 135 136 135 138 154 114 90 86 90 88 82 90 90 93 91 85 76 67 62 60 51 46 47 37 24 21 19 11 4 7 1 351 15 358 352 354 355 349
211 201 207 207 260 171 185 130 131 141 151 142 95 83 93 92 95 105 108 94 94 100 102 99 91 88 83 82 79 70 68 64 51 46 38 21 22 11 356 352 351 343 2 16 27 7 349 346 341